EW5830 Weather Reports


time (UTC)temp
C
wind
direction
speed
KPH
gust
KPH
rain 1hr
cm
rain 24hr
cm
rain mn
cm
humidity
%
barometer
mb
20260506105003 11 319 1.6 4.8 0.00 0.03 0.00 84 1019.3
20260506104503 11 319 1.6 6.4 0.00 0.03 0.00 84 1019.4
20260506104003 11 302 1.6 6.4 0.00 0.03 0.00 84 1019.3
20260506103503 11 295 0.0 4.8 0.00 0.03 0.00 84 1019.3
20260506103003 11 271 0.0 4.8 0.00 0.03 0.00 84 1019.3
20260506102503 11 250 1.6 4.8 0.00 0.03 0.00 84 1019.3
20260506102003 11 249 1.6 4.8 0.00 0.03 0.00 84 1019.2
20260506101503 11 265 1.6 4.8 0.00 0.03 0.00 84 1019.2
20260506101003 11 272 1.6 4.8 0.00 0.03 0.00 84 1019.2
20260506100503 11 267 1.6 4.8 0.00 0.03 0.00 84 1019.2
20260506100003 11 267 0.0 4.8 0.00 0.03 0.00 84 1019.2
20260506095503 11 285 0.0 1.6 0.00 0.03 0.00 84 1019.3
20260506095003 11 286 0.0 3.2 0.00 0.03 0.00 84 1019.3
20260506094524 11 290 0.0 3.2 0.00 0.03 0.00 84 1019.3
20260506094003 11 285 0.0 3.2 0.00 0.03 0.00 84 1019.3
20260506093503 11 274 0.0 3.2 0.00 0.03 0.00 84 1019.3
20260506093003 11 241 1.6 3.2 0.00 0.03 0.00 84 1019.3
20260506092503 11 231 1.6 4.8 0.00 0.03 0.00 84 1019.2
20260506092003 12 234 1.6 4.8 0.00 0.03 0.00 84 1019.2
20260506091524 12 250 1.6 6.4 0.00 0.03 0.00 84 1019.1
20260506091003 12 254 3.2 6.4 0.00 0.03 0.00 84 1019.1
20260506090503 12 253 1.6 4.8 0.00 0.03 0.00 84 1019.2
20260506090003 12 268 1.6 4.8 0.00 0.03 0.00 84 1019.2
20260506085503 12 287 1.6 6.4 0.00 0.03 0.00 84 1019.2
20260506085003 12 287 1.6 6.4 0.00 0.03 0.00 84 1019.2
20260506084503 12 281 1.6 8.0 0.00 0.03 0.00 84 1019.2
20260506084003 12 257 3.2 8.0 0.00 0.03 0.00 84 1019.2
20260506083503 12 251 3.2 9.7 0.00 0.03 0.00 84 1019.2
20260506083003 12 249 3.2 9.7 0.00 0.03 0.00 84 1019.2
20260506082503 12 252 3.2 9.7 0.00 0.03 0.00 84 1019.3
20260506082003 12 253 1.6 9.7 0.00 0.03 0.00 84 1019.3
20260506081503 12 256 3.2 8.0 0.00 0.03 0.00 84 1019.3
20260506081003 12 262 3.2 8.0 0.00 0.03 0.00 84 1019.3
20260506080503 12 263 3.2 6.4 0.00 0.03 0.00 84 1019.3
20260506073503 12 273 1.6 8.0 0.00 0.03 0.00 83 1019.0
20260506073003 12 277 1.6 8.0 0.00 0.03 0.00 83 1019.0
20260506072503 12 281 1.6 8.0 0.00 0.03 0.00 83 1019.0
20260506072003 12 277 1.6 8.0 0.00 0.03 0.00 83 1019.0
20260506071503 12 283 1.6 8.0 0.00 0.05 0.00 83 1019.0
20260506071003 12 291 1.6 6.4 0.00 0.05 0.00 83 1019.0
20260506070503 12 284 3.2 11.3 0.00 0.05 0.00 83 1019.0
20260506062503 12 271 3.2 9.7 0.00 0.05 0.05 83 1018.6
20260506062024 12 263 3.2 8.0 0.00 0.05 0.05 83 1018.5
20260506061503 12 264 3.2 9.7 0.00 0.05 0.05 83 1018.5
20260506061024 12 268 3.2 11.3 0.00 0.05 0.05 83 1018.5
20260506060503 12 271 3.2 11.3 0.00 0.05 0.05 83 1018.5
20260506051003 13 251 3.2 11.3 0.00 0.05 0.05 83 1018.3
20260506050503 13 250 4.8 11.3 0.00 0.05 0.05 83 1018.3
20260506045003 13 254 3.2 6.4 0.00 0.05 0.05 83 1018.0
20260506044503 13 256 3.2 6.4 0.00 0.05 0.05 83 1018.0
20260506044003 13 248 3.2 11.3 0.00 0.05 0.05 83 1018.0
20260506043503 13 244 3.2 11.3 0.00 0.05 0.05 83 1018.0
20260506043003 13 257 3.2 8.0 0.00 0.05 0.05 83 1017.9
20260506042503 13 250 3.2 9.7 0.00 0.05 0.05 83 1017.9
20260506042003 13 242 4.8 12.9 0.00 0.05 0.05 83 1017.8
20260506041503 13 241 6.4 12.9 0.00 0.05 0.05 83 1017.8
20260506041003 13 252 4.8 16.1 0.00 0.05 0.05 83 1017.6
20260506040503 13 253 6.4 16.1 0.00 0.05 0.05 83 1017.5
20260506040003 13 247 6.4 16.1 0.00 0.05 0.05 83 1017.4
20260506035503 13 249 6.4 16.1 0.00 0.05 0.05 83 1017.4
20260506035003 13 249 6.4 16.1 0.00 0.05 0.05 83 1017.3
20260506034503 13 247 8.0 16.1 0.00 0.05 0.05 83 1017.3
20260506034024 13 243 9.7 17.7 0.00 0.05 0.05 83 1017.2
20260506033503 13 242 6.4 17.7 0.00 0.05 0.05 83 1017.1
20260506033003 13 247 6.4 16.1 0.00 0.05 0.05 83 1017.1
20260506032503 13 243 6.4 16.1 0.00 0.05 0.05 83 1017.0
20260506032003 13 236 6.4 14.5 0.00 0.05 0.05 83 1017.1
20260506031524 13 241 8.0 19.3 0.00 0.05 0.05 83 1016.9
20260506031003 13 245 9.7 19.3 0.00 0.05 0.05 83 1016.9
20260506030503 13 244 8.0 19.3 0.00 0.05 0.05 83 1016.8
20260506030003 13 241 6.4 14.5 0.00 0.05 0.05 82 1016.8
20260506025503 13 240 6.4 14.5 0.00 0.05 0.05 82 1016.6
20260506025003 13 241 6.4 16.1 0.00 0.05 0.05 82 1016.6
20260506024503 13 245 8.0 16.1 0.00 0.05 0.05 82 1016.7
20260506024003 13 244 8.0 19.3 0.00 0.05 0.05 82 1016.8
20260506023503 13 239 8.0 19.3 0.00 0.05 0.05 81 1016.6
20260506023003 13 238 6.4 14.5 0.00 0.05 0.05 82 1016.5
20260506022524 13 245 8.0 19.3 0.00 0.05 0.05 82 1016.5
20260506022003 13 246 8.0 19.3 0.00 0.05 0.05 81 1016.3
20260506021503 13 241 8.0 19.3 0.00 0.05 0.05 81 1016.3
20260506021003 13 240 9.7 19.3 0.00 0.05 0.05 81 1016.3
20260506020503 13 239 9.7 19.3 0.00 0.05 0.05 80 1016.2
20260506020003 14 236 9.7 19.3 0.00 0.05 0.05 79 1016.2
20260506015524 14 242 9.7 20.9 0.00 0.05 0.05 78 1016.2
20260506015003 13 243 9.7 20.9 0.00 0.05 0.05 77 1016.2
20260506014503 14 241 9.7 19.3 0.00 0.05 0.05 78 1016.3
20260506014003 14 241 9.7 19.3 0.00 0.05 0.05 77 1016.3
20260506013524 15 244 8.0 19.3 0.00 0.05 0.05 76 1016.3
20260506013003 14 246 9.7 19.3 0.00 0.05 0.05 75 1016.3
20260506012503 15 243 8.0 17.7 0.00 0.05 0.05 75 1016.4
20260506012003 15 241 8.0 17.7 0.00 0.05 0.05 74 1016.3
20260506011504 15 239 8.0 17.7 0.00 0.05 0.05 73 1016.3
20260506011024 15 242 8.0 19.3 0.00 0.05 0.05 73 1016.2
20260506010503 15 249 9.7 19.3 0.00 0.05 0.05 72 1016.3
20260506010003 15 254 9.7 19.3 0.00 0.05 0.05 70 1016.2
20260506005524 15 246 9.7 19.3 0.00 0.05 0.05 71 1016.2
20260506005003 16 239 9.7 17.7 0.00 0.05 0.05 71 1016.2
20260506004504 16 246 8.0 20.9 0.00 0.05 0.05 71 1016.2
20260506004003 16 240 8.0 20.9 0.00 0.05 0.05 71 1016.0
20260506003503 16 235 9.7 20.9 0.00 0.05 0.05 71 1016.0
20260506003003 16 242 9.7 20.9 0.00 0.05 0.05 72 1016.0
20260506002503 16 245 11.3 20.9 0.00 0.05 0.05 72 1015.9
20260506002024 16 245 12.9 25.7 0.00 0.05 0.05 72 1016.0
20260506001503 16 244 12.9 25.7 0.00 0.05 0.05 73 1015.9
20260506001003 15 239 12.9 24.1 0.00 0.05 0.05 72 1015.8
20260506000503 15 240 11.3 27.4 0.00 0.05 0.05 73 1015.9
20260506000003 16 243 9.7 27.4 0.00 0.05 0.05 72 1015.9
20260505235503 16 244 11.3 22.5 0.00 0.05 0.05 72 1015.9
20260505235024 16 245 12.9 27.4 0.00 0.05 0.05 73 1015.9
20260505234503 16 244 12.9 27.4 0.00 0.05 0.05 72 1015.9
20260505234003 16 242 11.3 24.1 0.00 0.05 0.05 72 1016.0
20260505233503 16 242 12.9 22.5 0.00 0.05 0.05 72 1016.0
20260505233003 16 246 12.9 24.1 0.00 0.05 0.05 71 1016.0
20260505232503 16 246 12.9 24.1 0.00 0.05 0.05 70 1016.0
20260505232003 16 242 11.3 24.1 0.00 0.05 0.05 69 1016.0
20260505231503 17 235 9.7 22.5 0.00 0.05 0.05 68 1015.9
20260505231003 17 235 9.7 20.9 0.00 0.05 0.05 68 1015.9
20260505230524 17 245 11.3 20.9 0.00 0.05 0.05 68 1015.9
20260505230003 17 245 11.3 22.5 0.00 0.05 0.05 67 1015.9
20260505225503 18 240 11.3 20.9 0.00 0.05 0.05 67 1015.9
20260505225003 18 246 12.9 24.1 0.00 0.05 0.05 69 1015.8
20260505224503 17 248 12.9 27.4 0.00 0.05 0.05 69 1015.9
20260505224003 17 245 12.9 27.4 0.00 0.05 0.05 71 1015.9
20260505223524 16 240 11.3 25.7 0.00 0.05 0.05 73 1015.9
20260505223003 16 237 12.9 25.7 0.00 0.05 0.05 72 1016.0
20260505222503 16 232 9.7 24.1 0.00 0.05 0.05 71 1016.0
20260505222003 17 235 9.7 24.1 0.00 0.05 0.05 72 1016.1
20260505221503 16 240 11.3 24.1 0.00 0.05 0.05 72 1016.0
20260505221003 16 241 9.7 22.5 0.00 0.05 0.05 72 1016.2
20260505220503 16 241 9.7 20.9 0.00 0.05 0.05 72 1016.1
20260505220003 16 239 11.3 22.5 0.00 0.05 0.05 72 1016.2
20260505215503 16 241 11.3 22.5 0.00 0.05 0.05 71 1016.2
20260505215003 16 239 9.7 20.9 0.00 0.05 0.05 71 1016.2
20260505214503 16 239 9.7 24.1 0.00 0.05 0.05 71 1016.2
20260505214003 16 239 11.3 24.1 0.00 0.05 0.05 72 1016.3
20260505213503 16 235 11.3 24.1 0.00 0.05 0.05 72 1016.3
20260505213003 16 232 11.3 24.1 0.00 0.05 0.05 71 1016.3
20260505212524 17 226 11.3 22.5 0.00 0.05 0.05 70 1016.3
20260505212003 17 223 9.7 22.5 0.00 0.05 0.05 70 1016.3
20260505211503 17 231 9.7 20.9 0.00 0.05 0.05 68 1016.4
20260505211003 17 241 9.7 20.9 0.00 0.05 0.05 68 1016.3
20260505210503 18 246 9.7 20.9 0.00 0.05 0.05 69 1016.3
20260505210003 17 244 11.3 25.7 0.00 0.05 0.05 70 1016.4
20260505205503 16 241 11.3 25.7 0.00 0.05 0.05 71 1016.3
20260505205003 16 245 11.3 22.5 0.00 0.05 0.05 70 1016.3
20260505204524 16 254 9.7 22.5 0.00 0.05 0.05 71 1016.4
20260505204024 16 253 9.7 22.5 0.00 0.05 0.05 70 1016.3
20260505203503 17 250 9.7 20.9 0.00 0.05 0.05 70 1016.3
20260505203003 17 249 11.3 20.9 0.00 0.05 0.05 68 1016.4
20260505202503 18 243 9.7 22.5 0.00 0.05 0.05 67 1016.3
20260505202003 18 237 8.0 22.5 0.00 0.05 0.05 66 1016.3
20260505201503 19 241 9.7 19.3 0.00 0.05 0.05 68 1016.3
20260505201003 18 248 11.3 24.1 0.00 0.05 0.05 68 1016.3
20260505200503 17 245 12.9 24.1 0.00 0.05 0.05 67 1016.3
20260505200003 18 245 9.7 22.5 0.00 0.05 0.05 67 1016.3
20260505195503 18 251 9.7 25.7 0.00 0.05 0.05 68 1016.4
20260505195024 17 247 11.3 25.7 0.00 0.05 0.05 69 1016.5
20260505194524 17 250 11.3 22.5 0.00 0.05 0.05 68 1016.5
20260505194003 17 248 9.7 20.9 0.00 0.05 0.05 70 1016.5
20260505193503 17 246 11.3 25.7 0.00 0.05 0.05 72 1016.5
20260505193003 16 241 11.3 25.7 0.00 0.05 0.05 71 1016.5
20260505192503 16 243 9.7 20.9 0.00 0.05 0.05 72 1016.6
20260505192003 16 249 11.3 20.9 0.00 0.05 0.05 73 1016.5
20260505191503 16 241 11.3 20.9 0.00 0.05 0.05 74 1016.5
20260505191003 16 236 9.7 20.9 0.00 0.05 0.05 75 1016.5
20260505190503 16 240 9.7 22.5 0.00 0.05 0.05 76 1016.4
20260505190003 16 240 11.3 22.5 0.00 0.05 0.05 78 1016.3
20260505185503 15 242 11.3 22.5 0.00 0.05 0.05 78 1016.4
20260505185003 15 244 9.7 22.5 0.00 0.05 0.05 77 1016.3
20260505184524 15 240 9.7 24.1 0.00 0.05 0.05 77 1016.3
20260505184003 15 244 9.7 24.1 0.00 0.05 0.05 77 1016.3
20260505183503 15 257 8.0 20.9 0.00 0.05 0.05 77 1016.4
20260505183003 16 257 8.0 20.9 0.00 0.05 0.05 77 1016.4
20260505182503 16 248 6.4 19.3 0.00 0.05 0.05 79 1016.6
20260505182003 15 238 6.4 14.5 0.00 0.05 0.05 79 1016.4
20260505181503 15 235 8.0 19.3 0.00 0.05 0.05 79 1016.4
20260505181003 16 240 6.4 19.3 0.00 0.05 0.05 79 1016.3
20260505180503 15 248 6.4 16.1 0.00 0.05 0.05 82 1016.2
20260505180003 15 243 6.4 16.1 0.00 0.05 0.05 83 1016.2
20260505175524 15 246 6.4 14.5 0.00 0.05 0.05 84 1016.2
20260505175003 14 250 6.4 14.5 0.00 0.05 0.05 84 1016.2
20260505174503 14 249 6.4 14.5 0.00 0.05 0.05 85 1016.1
20260505174003 14 253 6.4 14.5 0.00 0.05 0.05 86 1016.0
20260505173524 13 255 6.4 14.5 0.00 0.05 0.05 86 1016.1
20260505173003 13 252 4.8 14.5 0.00 0.05 0.05 87 1016.1
20260505172524 13 247 4.8 12.9 0.00 0.05 0.05 87 1016.1
20260505172003 13 250 6.4 16.1 0.00 0.05 0.05 87 1016.1
20260505171503 13 250 6.4 17.7 0.00 0.05 0.05 87 1016.1
20260505171024 13 249 6.4 17.7 0.00 0.05 0.05 88 1016.0
20260505170503 13 245 6.4 19.3 0.00 0.05 0.05 88 1016.0
20260505170024 13 244 6.4 19.3 0.00 0.05 0.05 88 1016.0
20260505165503 13 252 4.8 14.5 0.00 0.05 0.05 88 1016.0
20260505165003 13 254 4.8 11.3 0.00 0.05 0.05 89 1016.0
20260505164524 13 255 4.8 11.3 0.00 0.05 0.05 89 1016.0
20260505164024 13 253 4.8 14.5 0.00 0.05 0.05 89 1016.0
20260505163503 13 256 4.8 14.5 0.00 0.05 0.05 89 1016.0
20260505163003 12 264 4.8 14.5 0.00 0.05 0.05 89 1016.0
20260505162503 12 261 6.4 14.5 0.00 0.05 0.05 89 1016.0
20260505162003 12 256 6.4 14.5 0.00 0.05 0.05 89 1015.9
20260505161503 12 253 4.8 14.5 0.00 0.05 0.05 89 1015.9
20260505161003 12 255 3.2 9.7 0.00 0.05 0.05 89 1015.8
20260505160503 12 249 4.8 12.9 0.00 0.05 0.05 89 1015.8
20260505153003 12 250 6.4 16.1 0.00 0.05 0.05 88 1015.6
20260505152503 12 252 8.0 16.1 0.00 0.05 0.05 88 1015.5
20260505152024 12 255 6.4 14.5 0.00 0.05 0.05 88 1015.5
20260505151503 12 255 8.0 22.5 0.00 0.05 0.05 88 1015.6
20260505151003 12 255 8.0 22.5 0.00 0.05 0.05 88 1015.5
20260505150503 12 255 6.4 14.5 0.00 0.05 0.05 88 1015.4
20260505140503 11 244 6.4 12.9 0.00 0.05 0.05 88 1015.0
20260505125003 11 244 8.0 16.1 0.03 0.05 0.05 87 1014.8
20260505124503 11 249 8.0 16.1 0.03 0.05 0.05 87 1014.8
20260505124024 11 252 6.4 16.1 0.03 0.05 0.05 87 1014.8
20260505123524 11 250 6.4 14.5 0.03 0.05 0.05 87 1014.7
20260505123024 11 251 6.4 14.5 0.00 0.03 0.03 87 1014.7
20260505122503 11 251 8.0 17.7 0.00 0.03 0.03 87 1014.7
20260505122003 11 252 6.4 17.7 0.00 0.03 0.03 87 1014.7
20260505121503 11 254 8.0 16.1 0.00 0.03 0.03 87 1014.7
20260505121024 11 250 8.0 16.1 0.00 0.03 0.03 87 1014.8
20260505120524 11 243 9.7 16.1 0.00 0.03 0.03 87 1014.6
20260505120004 11 243 8.0 16.1 0.00 0.03 0.03 87 1014.6
20260505115524 11 246 6.4 14.5 0.00 0.03 0.03 87 1014.7
20260505115003 11 247 8.0 14.5 0.00 0.03 0.03 87 1014.7
20260505114503 11 245 6.4 14.5 0.00 0.03 0.03 87 1014.7
20260505114003 10 243 6.4 14.5 0.00 0.03 0.03 87 1014.7
20260505113503 10 243 6.4 14.5 0.00 0.03 0.03 87 1014.8
20260505113003 10 243 6.4 12.9 0.00 0.03 0.03 87 1014.9
20260505112503 10 246 6.4 12.9 0.00 0.03 0.03 87 1014.9
20260505112003 10 252 6.4 16.1 0.00 0.03 0.03 87 1014.9
20260505111524 10 249 8.0 16.1 0.00 0.03 0.03 86 1014.9
20260505111003 10 243 6.4 14.5 0.00 0.03 0.03 86 1014.7
20260505110503 10 242 6.4 14.5 0.00 0.03 0.03 86 1014.8